(276881) = 2004 RS253 = 2006 AJ58

Discovered at Palomar on 2004-09-06 by NEAT.

Orbit

Orbit type: Main Belt

Note: WebGL enabled browser required.

epoch2024-03-31.0
epoch JD2460400.5
perihelion date2022-07-25.52141
perihelion JD2459786.02141
argument of perihelion (°)282.10807
ascending node (°)135.93353
inclination (°)11.47725
eccentricity0.1206791
perihelion distance (AU)2.3258669
Tisserand w.r.t. Jupiter3.4
ΔV w.r.t. Earth (km/sec)10.2
semimajor axis (AU)2.6450718
mean anomaly (°)140.78443
mean daily motion (°/day)0.22911200
aphelion distance (AU)2.964
period (years)4.3
P-vector [x]0.51570545
P-vector [y]0.84292115
P-vector [z]0.15340084
Q-vector [x]-0.84551557
Q-vector [y]0.47178928
Q-vector [z]0.25003657
absolute magnitude16.46
phase slope0.15
uncertainty0
referenceE2024-GJ9
observations used322
oppositions16
arc length (days)8541
first opposition used2000
last opposition used2024
residual rms (arc-secs)0.81
perturbers coarse indicatorM-v
perturbers precise indicator003Ek
first observation date used2000-11-23.0
last observation date used2024-04-12.0
computer nameMPCLINUX
JD of orbit computation2456700.233312
perihelion JD uncertainty (days)1.6560E-04
argument of perihelion uncertainty (°)5.8392E-05
ascending node uncertainty (°)3.6686E-05
inclination uncertainty (°)7.0881E-06
eccentricity uncertainty 6.8449E-08
perihelion distance uncertainty (AU)1.8661E-07
Minimum Orbit Intersection Distances (in AU)
for orbit epoch: 2460400.5, reference: E2024-GJ9
Mercury2.02046
Venus1.62002
Earth1.37097
Mars0.84061
Jupiter2.36424
Saturn6.63217
Uranus15.6976
Neptune27.4335

Observations

325 total observations over interval: 2000 11 23.34739 – 2024 03 19.609424
These data are available for download (format description).

Date (UT) J2000 RA J2000 Dec Magn Location Ref
2000 11 23.34739 01 59 21.27 -07 06 20.3 20.8   608 – Haleakala-AMOS MPS 158975
2000 11 23.35768 01 59 20.94 -07 06 19.0 20.7   608 – Haleakala-AMOS MPS 158975
2000 11 23.36797 01 59 20.59 -07 06 17.5 21.0   608 – Haleakala-AMOS MPS 158975
2002 03 11.37448 11 11 37.98 +14 57 29.0 20.2   644 – Palomar Mountain/NEAT MPS 158975
2002 03 11.38488 11 11 37.47 +14 57 34.3 20.0   644 – Palomar Mountain/NEAT MPS 158975
2002 03 11.39536 11 11 36.93 +14 57 39.4 20.8   644 – Palomar Mountain/NEAT MPS 158975
2004 08 23.32841 23 49 52.99 -10 44 31.3 19.2 R 699 – Lowell Observatory-LONEOS MPS 158975
2004 08 23.34300 23 49 52.77 -10 44 39.6   699 – Lowell Observatory-LONEOS MPS 158975
2004 08 23.35761 23 49 52.30 -10 44 50.3   699 – Lowell Observatory-LONEOS MPS 158975
2004 08 23.37224 23 49 51.94 -10 44 57.7   699 – Lowell Observatory-LONEOS MPS 158975
2004 09 06.28904 23 41 16.83 -13 05 04.1 19.2   644 – Palomar Mountain/NEAT MPS 113298
2004 09 06.30875 23 41 15.94 -13 05 16.1 18.9   644 – Palomar Mountain/NEAT MPS 113298
2004 09 06.33637 23 41 14.69 -13 05 32.9 18.7   644 – Palomar Mountain/NEAT MPS 113298
2004 09 07.24862 23 40 35.23 -13 14 42.2 20.3   704 – Lincoln Laboratory ETS, New Mexico MPS 113298
2004 09 07.25988 23 40 34.61 -13 14 49.5 20.0   704 – Lincoln Laboratory ETS, New Mexico MPS 113298
2004 09 07.27147 23 40 34.11 -13 14 55.1 20.3   704 – Lincoln Laboratory ETS, New Mexico MPS 113298
2004 09 07.28284 23 40 33.56 -13 15 03.0 20.0   704 – Lincoln Laboratory ETS, New Mexico MPS 113298
2004 09 15.25979 23 34 31.36 -14 32 11.5 19.2 R 699 – Lowell Observatory-LONEOS MPS 114558
2004 09 15.27438 23 34 30.63 -14 32 19.4   699 – Lowell Observatory-LONEOS MPS 114558
2004 09 15.28901 23 34 29.84 -14 32 28.0   699 – Lowell Observatory-LONEOS MPS 114558
2004 09 15.30362 23 34 29.26 -14 32 36.1   699 – Lowell Observatory-LONEOS MPS 114558
2004 09 21.22820 23 29 55.45 -15 24 24.7 19.1   704 – Lincoln Laboratory ETS, New Mexico MPS 114558
2004 09 21.24015 23 29 54.91 -15 24 31.3 19.7   704 – Lincoln Laboratory ETS, New Mexico MPS 114558
2004 09 21.25211 23 29 54.31 -15 24 37.4 19.6   704 – Lincoln Laboratory ETS, New Mexico MPS 114558
2004 09 21.26438 23 29 53.73 -15 24 43.2 19.4   704 – Lincoln Laboratory ETS, New Mexico MPS 114558
2004 09 21.27635 23 29 53.16 -15 24 49.5 19.7   704 – Lincoln Laboratory ETS, New Mexico MPS 114558
2006 01 08.41478 09 15 04.53 +12 37 33.0 20.1 V G96 – Mt. Lemmon Survey MPS 159285
2006 01 08.42113 09 15 04.24 +12 37 35.4 20.0 V G96 – Mt. Lemmon Survey MPS 159285
2006 01 08.42749 09 15 04.03 +12 37 37.9 20.0 V G96 – Mt. Lemmon Survey MPS 159285
2006 01 08.43383 09 15 03.78 +12 37 40.6 19.9 V G96 – Mt. Lemmon Survey MPS 159285
2006 01 09.43444 09 14 27.69 +12 44 39.7 20.4 V 691 – Steward Observatory, Kitt Peak-Spacewatch MPS 159285
2006 01 09.45811 09 14 26.78 +12 44 49.9 20.4 V 691 – Steward Observatory, Kitt Peak-Spacewatch MPS 159285
2006 01 09.47551 09 14 26.08 +12 44 57.2 20.4 V 691 – Steward Observatory, Kitt Peak-Spacewatch MPS 159285
2006 01 22.17030 09 05 03.41 +14 25 06.1 19.9 V 691 – Steward Observatory, Kitt Peak-Spacewatch MPS 160436
2006 01 22.18759 09 05 02.52 +14 25 16.1 20.3 V 691 – Steward Observatory, Kitt Peak-Spacewatch MPS 160436
2006 01 22.20487 09 05 01.62 +14 25 24.1 19.8 V 691 – Steward Observatory, Kitt Peak-Spacewatch MPS 160436
2006 01 22.24332 09 04 59.57 +14 25 43.9 19.4 R 699 – Lowell Observatory-LONEOS MPS 160436
2006 01 22.27073 09 04 58.15 +14 25 58.7   699 – Lowell Observatory-LONEOS MPS 160436
2006 01 22.29818 09 04 56.75 +14 26 11.8   699 – Lowell Observatory-LONEOS MPS 160436
2006 01 22.32560 09 04 55.26 +14 26 26.3   699 – Lowell Observatory-LONEOS MPS 160436
2006 01 27.14984 09 00 44.61 +15 08 21.8   691 – Steward Observatory, Kitt Peak-Spacewatch MPS 160436
2006 01 27.16721 09 00 43.68 +15 08 31.2   691 – Steward Observatory, Kitt Peak-Spacewatch MPS 160436
2006 01 27.18459 09 00 42.73 +15 08 40.7   691 – Steward Observatory, Kitt Peak-Spacewatch MPS 160436
2006 01 27.36240 09 00 33.00 +15 10 15.1 18.9 R 699 – Lowell Observatory-LONEOS MPS 161798
2006 01 27.38433 09 00 31.71 +15 10 27.9   699 – Lowell Observatory-LONEOS MPS 161798
2006 01 27.40628 09 00 30.58 +15 10 38.4   699 – Lowell Observatory-LONEOS MPS 161798
2006 01 27.42822 09 00 29.25 +15 10 49.2   699 – Lowell Observatory-LONEOS MPS 161798
2006 01 31.33682 08 56 59.38 +15 45 23.0 19.7 V G96 – Mt. Lemmon Survey MPS 161798
2006 01 31.34339 08 56 58.99 +15 45 26.5 19.9 V G96 – Mt. Lemmon Survey MPS 161798
2006 01 31.34998 08 56 58.63 +15 45 30.4 19.1 V G96 – Mt. Lemmon Survey MPS 161798
2006 01 31.35655 08 56 58.34 +15 45 33.6 19.3 V G96 – Mt. Lemmon Survey MPS 161798
2006 02 02.17683 08 55 20.29 +16 01 38.8 19.7 V 691 – Steward Observatory, Kitt Peak-Spacewatch MPS 161798
2006 02 02.19422 08 55 19.35 +16 01 48.2 19.8 V 691 – Steward Observatory, Kitt Peak-Spacewatch MPS 161798
2006 02 02.21161 08 55 18.38 +16 01 57.5 19.9 V 691 – Steward Observatory, Kitt Peak-Spacewatch MPS 161798
2007 04 25.31830 15 28 38.85 -01 19 21.2 19.8 V G96 – Mt. Lemmon Survey MPS 208068
2007 04 25.32351 15 28 38.67 -01 19 19.6 20.8 V G96 – Mt. Lemmon Survey MPS 208068
2007 04 25.32880 15 28 38.38 -01 19 18.2 20.5 V G96 – Mt. Lemmon Survey MPS 208068
2007 04 25.33405 15 28 38.17 -01 19 16.6 20.5 V G96 – Mt. Lemmon Survey MPS 208068
2008 10 27.09092 20 57 43.05 -21 19 14.9   291 – LPL/Spacewatch II MPS 261499
2008 10 27.09652 20 57 43.26 -21 19 14.1   291 – LPL/Spacewatch II MPS 261499
2008 10 27.10218 20 57 43.53 -21 19 14.3   291 – LPL/Spacewatch II MPS 261499
2011 01 14.48491 13 45 56.95 -01 10 19.9 20.9 V G96 – Mt. Lemmon Survey MPS 366978
2011 01 14.49123 13 45 57.27 -01 10 19.1 20.9 V G96 – Mt. Lemmon Survey MPS 366978
2011 01 14.49763 13 45 57.60 -01 10 18.8 20.7 V G96 – Mt. Lemmon Survey MPS 366978
2011 01 14.50393 13 45 57.88 -01 10 19.5 21.1 V G96 – Mt. Lemmon Survey MPS 366978
2011 03 12.46978 14 02 42.90 +02 36 47.4 20.2 V G96 – Mt. Lemmon Survey MPS 374793
2011 03 12.47676 14 02 42.75 +02 36 50.6 20.4 V G96 – Mt. Lemmon Survey MPS 374793
2011 03 12.48380 14 02 42.57 +02 36 53.2 20.4 V G96 – Mt. Lemmon Survey MPS 374793
2011 03 12.49075 14 02 42.43 +02 36 57.0 20.2 V G96 – Mt. Lemmon Survey MPS 374793
2011 04 21.38770 13 35 35.082 +07 17 32.73 20.4 i F51 – Pan-STARRS 1, Haleakala MPS 380025
2011 04 21.39940 13 35 34.491 +07 17 35.97 20.5 i F51 – Pan-STARRS 1, Haleakala MPS 380025
2011 04 21.41221 13 35 33.861 +07 17 39.83 20.5 r F51 – Pan-STARRS 1, Haleakala MPS 380025
2011 04 21.42301 13 35 33.317 +07 17 42.83 20.3 r F51 – Pan-STARRS 1, Haleakala MPS 380025
2013 10 03.32109 03 36 49.25 +01 22 42.4 20.9 G G45 – Space Surveillance Telescope, Atom Site MPS 1608808
2013 10 03.33919 03 36 48.96 +01 22 32.3 19.7 G G45 – Space Surveillance Telescope, Atom Site MPS 1608808
2013 10 03.35410 03 36 48.81 +01 22 26.2 20.0 G G45 – Space Surveillance Telescope, Atom Site MPS 1608808
2013 10 03.37351 03 36 48.63 +01 22 17.8 20.0 G G45 – Space Surveillance Telescope, Atom Site MPS 1608808
2013 11 01.32494 03 22 19.35 -01 49 33.7 18.7 V 703 – Catalina Sky Survey MPS 486987
2013 11 01.33480 03 22 18.89 -01 49 37.8 18.7 V 703 – Catalina Sky Survey MPS 486987
2013 11 01.34466 03 22 18.45 -01 49 41.2 19.0 V 703 – Catalina Sky Survey MPS 486987
2013 11 01.35449 03 22 17.86 -01 49 43.8 19.3 V 703 – Catalina Sky Survey MPS 486987
2013 11 06.64541 03 17 50.35 -02 14 09.9 19.4 R D29 – Purple Mountain Observatory, XuYi Station MPS 486987
2013 11 06.66132 03 17 49.51 -02 14 13.4 19.4 R D29 – Purple Mountain Observatory, XuYi Station MPS 486987
2013 11 09.33446 03 15 29.25 -02 24 17.7 19.1 V 703 – Catalina Sky Survey MPS 488288
2013 11 09.34001 03 15 28.93 -02 24 18.0 19.2 V 703 – Catalina Sky Survey MPS 488288
2013 11 09.34556 03 15 28.61 -02 24 20.3 19.1 V 703 – Catalina Sky Survey MPS 488288
2013 11 09.35111 03 15 28.27 -02 24 21.4 19.2 V 703 – Catalina Sky Survey MPS 488288
2013 11 23.33885 03 03 26.899 -02 47 57.02 19.4 i F51 – Pan-STARRS 1, Haleakala MPS 489781
2013 11 23.35148 03 03 26.261 -02 47 56.96 19.4 i F51 – Pan-STARRS 1, Haleakala MPS 489781
2013 11 24.35374 03 02 38.479 -02 47 39.22 19.9 g F51 – Pan-STARRS 1, Haleakala MPS 489781
